Location: Saint-Gilles les Bains
(21.0539°S, 55.2287°E)
Time: 06:14:24
(UTC+04:00)

Hubble Space Telescope - Pass Details

Date: 26 June 2021
Orbit: 535 x 539 km, 28.5° (Epoch: 28 July)

Event Time Altitude Azimuth Distance (km) Brightness Sun altitude
Exits shadow 04:32:47 16° 40° (NE) 1,430 3.4 -32.4°
Drops below altitude 10° 04:33:47 10° 46° (NE) 1,786 4.1 -32.1°
Sets 04:36:07 0° 52° (NE) 2,673 5.3 -31.6°
